sat.trackr.live / text

‹ back to catalog

TIANHUI 1-04

NORAD 49049 · 2021-067A

PAYLOAD ACTIVE UNKNOWN

§ Identity

Operator
Country
PRC
Launch date
2021-07-29
Launch site
JSC
Launch vehicle
Mass (kg)
RCS (m²)

External: N2YO · Heavens-Above · Gunter

§ Orbital elements

Epoch: 2026-05-25T04:59:52.938240Z

Period
94.52 min
Inclination
97.2777°
Eccentricity
0.0000362
Mean motion
15.23480803 rev/d
Perigee alt
495.1 km
Apogee alt
495.6 km
Semi-major
6,873.5 km
B*
2.0944e-4
RAAN
214.0027°
Arg perigee
95.1944°
Mean anomaly
264.9335°
Rev number
26,809

§ Raw data

TIANHUI 1-041 49049U 21067A   26145.20825160  .00004927  00000+0  20944-3 0  99972 49049  97.2777 214.0027 0000362  95.1944 264.9335 15.23480803268097

JSON: /api/v1/satellites/49049 · /tle

For live sub-satellite position, see the globe view (requires WebGL).

§ Visibility from observer

Set your observer location to see the next 7 days of passes ≥ 10°. The values pass through the URL so the page stays shareable.

No JS? Fill the form by hand. The geolocation button needs JavaScript.